Terug naar catalogus

GEESAT 1-01

ActiefWetenschapLEO
NORAD 52785·PAYLOAD·🇨🇳 China

Gelanceerd Jun 2, 2022 vanaf Xichang Satellite Launch Center

Loading…

Volgende Passages (komende 24 uur)

TLE

VersSource: Space-Track

Epoch: Sep 14, 2026, 13:26 UTC

1 52785U 22058A   26257.56005115  .00001069  00000-0  16266-3 0  9999
2 52785  49.9933 149.6545 0021840 244.3338 115.5344 14.81589326233189

Volg GEESAT 1-01 in realtime met AllMySat

Download on the App Store